Content
SEND FEEDBACK

Daily
Averages
Monthly
Summary
United States of America

UPI, GUAM


Home > North America > United States > Guam
Elevation: 53 feet     Latitude: 13 34N     Longitude: 144 55E

WEATHER
 
SELECT A DAY
Number of Records: 209,230;   Date Range: 1/1/95 - 9/3/14
 
SHARE

PRINT THIS DATA

[ ← Previous Day ]
WEATHER ALMANAC - JANUARY 25, 2014
[ Next Day → ]
[ °C ]   °F
Weather ElementAverageHighLow
Temperature79.1 °F84.9 °F (10:54 am)77 °F (12:38 pm)
Dewpoint76.3 °F79 °F (1:54 pm)75 °F (7:54 pm)
Humidity91 %96 % (12:54 pm)74 % (10:54 am)
Barometer29.67 in29.73 in (8:33 am)29.62 in (2:54 pm)
Wind Speed5.6 mph15 mph (10:54 am)
Wind Gust25.3 mph (12:38 pm)
Weather ElementAverage
Visibility7 mi
Wind DirectionS (178.3 °)

Weather ElementTotal
Precipitation3.92 in
Cooling Degree Days16 (Base 65)
Growing Degree Days31 (Base 50)
Averaged from 48 records on January 25, 2014
WEATHER CONDITIONS BREAKOUT
WIND DIRECTION BREAKOUT
WEATHER BY HOUR - JANUARY 25, 2014
[ °C ]   °F
Local TimeTemperatureDewpointHumidityBarometerVisibilityWind DirectionWind SpeedGust SpeedPrecipitationEventsConditions
1:54 AM78.1 °F75.9 °F93 %29.66 in10.0 miSE (140°)4.6 mphClear
2:54 AM79.0 °F75.9 °F90 %29.64 in10.0 miSSE (150°)5.8 mphScattered Clouds
3:54 AM79.0 °F75.9 °F90 %29.64 in10.0 miSSE (160°)4.6 mphScattered Clouds
4:54 AM78.1 °F75.9 °F93 %29.64 in10.0 miSouth (170°)3.5 mphPartly Cloudy
5:54 AM79.0 °F77.0 °F94 %29.65 in10.0 miSouth (170°)3.5 mphPartly Cloudy
6:54 AM79.0 °F75.9 °F90 %29.67 in10.0 miSE (140°)4.6 mphScattered Clouds
7:54 AM79.0 °F75.9 °F90 %29.69 in2.0 miSSE (160°)10.4 mph18.4 mph0.00 inRainHeavy Rain
8:01 AM78.8 °F77.0 °F94 %29.72 in1.8 miSouth (170°)6.9 mph18.4 mph0.08 inRainHeavy Rain
8:04 AM78.8 °F75.2 °F89 %29.72 in3.0 miSouth (180°)8.1 mph0.08 inRainLight Rain
8:33 AM78.8 °F75.2 °F89 %29.73 in10.0 miSSE (160°)3.5 mph0.11 inOvercast
8:54 AM81.0 °F77.0 °F88 %29.70 in10.0 miSouth (170°)4.6 mph0.11 inOvercast
9:39 AM82.4 °F77.0 °F84 %29.72 in10.0 miSouth (170°)8.1 mphMostly Cloudy
9:54 AM81.0 °F75.9 °F85 %29.70 in10.0 miSouth (170°)11.5 mph17.3 mphMostly Cloudy
10:06 AM84.2 °F77.0 °F79 %29.72 in10.0 miSE (140°)9.2 mphMostly Cloudy
10:54 AM84.9 °F75.9 °F74 %29.69 in10.0 miSSE (150°)15.0 mph19.6 mphPartly Cloudy
11:54 AM84.9 °F77.0 °F77 %29.67 in10.0 miSSE (160°)8.1 mph0.00 inRainLight Rain
12:38 PM77.0 °F75.2 °F94 %29.69 in3.0 miSW (220°)15.0 mph25.3 mph0.03 inRainRain
12:45 PM77.0 °F75.2 °F94 %29.69 in3.0 miSW (220°)9.2 mph21.9 mph0.10 inRainHeavy Rain
12:54 PM77.0 °F75.9 °F96 %29.66 in3.0 miSSW (200°)5.8 mph0.15 inRainRain
1:54 PM84.9 °F79.0 °F82 %29.63 in10.0 miSSW (210°)6.9 mph0.01 inScattered Clouds
2:13 PM82.4 °F78.8 °F89 %29.64 in10.0 miSSE (160°)8.1 mphMostly Cloudy
2:51 PM78.8 °F77.0 °F94 %29.63 in6.0 miWest (260°)13.8 mph17.3 mph0.01 inRainRain
2:54 PM79.0 °F75.9 °F90 %29.62 in4.0 miWest (270°)11.5 mph0.02 inRainHeavy Rain
2:56 PM78.8 °F75.2 °F89 %29.64 in2.5 miWest (260°)11.5 mph0.00 inRainHeavy Rain
3:03 PM78.8 °F77.0 °F94 %29.64 in4.0 miWest (260°)5.8 mph0.14 inRainHeavy Rain
3:26 PM78.8 °F75.2 °F89 %29.65 in3.0 miSW (220°)4.6 mph0.19 inRainHeavy Rain
3:29 PM78.8 °F75.2 °F89 %29.65 in1.0 miWSW (250°)4.6 mph0.29 inRainHeavy Rain
3:40 PM77.0 °F75.2 °F94 %29.64 in5.0 miCalm0.75 inRainHeavy Rain
3:54 PM78.1 °F75.9 °F93 %29.63 in5.0 miWest (270°)3.5 mph0.74 inRainLight Rain
4:45 PM78.8 °F77.0 °F94 %29.66 in10.0 miNorth (350°)3.5 mph0.01 inOvercast
4:54 PM79.0 °F77.0 °F94 %29.64 in10.0 miNorth (350°)4.6 mph0.01 inMostly Cloudy
5:01 PM78.8 °F77.0 °F94 %29.66 in9.0 miNNW (330°)3.5 mphMostly Cloudy
5:13 PM78.8 °F77.0 °F94 %29.68 in5.0 miCalm0.00 inRainLight Rain
5:18 PM78.8 °F77.0 °F94 %29.68 in2.5 miWSW (250°)4.6 mph0.01 inRainHeavy Rain
5:22 PM78.8 °F77.0 °F94 %29.67 in0.5 miVariable3.5 mph0.04 inFog-RainHeavy Rain
5:26 PM78.8 °F77.0 °F94 %29.68 in1.0 miNW (310°)6.9 mph0.18 inRainRain
5:30 PM78.8 °F77.0 °F94 %29.68 in2.0 miNW (320°)5.8 mph0.20 inRainLight Rain
5:35 PM78.8 °F77.0 °F94 %29.68 in5.0 miWNW (290°)5.8 mph0.20 inRainLight Rain
5:43 PM78.8 °F77.0 °F94 %29.68 in9.0 miNW (310°)3.5 mph0.20 inOvercast
5:54 PM77.0 °F75.9 °F96 %29.67 in10.0 miCalm0.20 inOvercast
6:41 PM78.8 °F75.2 °F89 %29.70 in8.0 miCalm0.00 inRainLight Rain
6:54 PM78.1 °F75.9 °F93 %29.68 in10.0 miWest (260°)4.6 mph0.01 inRainLight Rain
7:16 PM77.0 °F75.2 °F94 %29.70 in10.0 miSSW (200°)3.5 mph0.01 inRainLight Rain
7:54 PM77.0 °F75.0 °F94 %29.69 in10.0 miCalm0.04 inRainLight Rain
8:54 PM78.1 °F75.0 °F90 %29.71 in10.0 miCalm0.00 inMostly Cloudy
9:54 PM77.0 °F75.0 °F94 %29.71 in10.0 miCalmMostly Cloudy
10:54 PM77.0 °F75.9 °F96 %29.70 in10.0 miESE (120°)3.5 mphScattered Clouds
11:54 PM78.1 °F77.0 °F96 %29.68 in10.0 miESE (110°)3.5 mphScattered Clouds
Hourly data recorded from PGUM, located miles away from Upi, Guam







STORIES FROM OUR PARTNERS